#�ϑ�����,���ϕ���,���ϕ���,�ő啗��,�ő啗����������,�ő�u�ԕ���,�ő�u�ԕ�����������
#(�N����),(m/s)   ,(16����),(m/s)   ,(16����)        ,(m/s)       ,(16����)            
2018/3/1 0:01,3.9,3,3.9,3,7.1,3
2018/3/1 0:02,3.9,3,3.9,3,5.5,3
2018/3/1 0:03,3.9,3,4,3,6.9,3
2018/3/1 0:04,3.9,3,3.9,3,5.1,2
2018/3/1 0:05,4.1,3,4.1,3,6.7,3
2018/3/1 0:06,4,3,4.2,3,5.8,4
2018/3/1 0:07,4,3,4,3,4.9,3
2018/3/1 0:08,3.9,3,4,3,4.7,1
2018/3/1 0:09,4,3,4,3,6.5,3
2018/3/1 0:10,3.8,3,4,3,5.2,3
2018/3/1 0:11,3.8,3,3.8,3,6.9,3
2018/3/1 0:12,3.9,3,3.9,3,6.3,3
2018/3/1 0:13,3.9,3,3.9,3,7.1,3
2018/3/1 0:14,4.1,3,4.1,3,7,3
2018/3/1 0:15,4.3,3,4.3,3,8.6,3
2018/3/1 0:16,4.3,3,4.3,3,6.7,3
2018/3/1 0:17,4.4,3,4.4,3,7.1,3
2018/3/1 0:18,4.7,3,4.7,3,7.4,3
2018/3/1 0:19,4.5,3,4.7,3,6.2,3
2018/3/1 0:20,4.6,3,4.6,3,7.4,4
2018/3/1 0:21,4.6,3,4.6,3,6.8,3
2018/3/1 0:22,4.5,2,4.6,3,8.1,2
2018/3/1 0:23,4.5,2,4.6,3,6.4,3
2018/3/1 0:24,4.3,2,4.5,3,5,3
2018/3/1 0:25,3.9,3,4.2,3,5,3
2018/3/1 0:26,3.8,2,3.9,3,5.6,3
2018/3/1 0:27,3.5,2,3.8,3,2.7,3
2018/3/1 0:28,3.1,2,3.4,3,2,1
2018/3/1 0:29,2.8,3,3,3,1.8,6
2018/3/1 0:30,2.4,3,2.8,3,0.5,2
2018/3/1 0:31,2,2,2.3,3,2,1
2018/3/1 0:32,1.7,2,1.9,2,3,1
2018/3/1 0:33,1.8,2,1.8,2,5.4,3
2018/3/1 0:34,2,2,2,3,6.4,3
2018/3/1 0:35,2.2,2,2.2,2,6.3,3
2018/3/1 0:36,2.4,3,2.4,2,5.5,3
2018/3/1 0:37,2.9,3,2.9,2,8.6,3
2018/3/1 0:38,3.5,3,3.5,3,8.7,3
2018/3/1 0:39,4.1,3,4.1,3,8.6,4
2018/3/1 0:40,4.7,3,4.7,3,7.9,3
2018/3/1 0:41,5.3,3,5.3,3,9.7,3
2018/3/1 0:42,5.7,3,5.7,3,9.8,3
2018/3/1 0:43,6,3,6,3,10.7,3
2018/3/1 0:44,6.1,3,6.1,3,10,3
2018/3/1 0:45,6.2,3,6.2,3,8.6,2
2018/3/1 0:46,6.2,3,6.2,3,7.6,3
2018/3/1 0:47,6.2,3,6.2,3,8.7,2
2018/3/1 0:48,6.1,3,6.2,3,9.3,3
2018/3/1 0:49,6.1,3,6.1,3,9.5,3
2018/3/1 0:50,6,3,6.1,3,9.9,3
2018/3/1 0:51,6,3,6.1,3,10.8,3
2018/3/1 0:52,5.9,3,6.1,3,8.7,3
2018/3/1 0:53,5.7,3,5.9,3,8.1,2
2018/3/1 0:54,5.6,3,5.7,3,8.9,3
2018/3/1 0:55,5.5,3,5.6,3,7.2,3
2018/3/1 0:56,5.4,3,5.5,3,7,2
2018/3/1 0:57,5.1,3,5.4,3,7.5,2
2018/3/1 0:58,4.9,2,5,3,7.2,2
2018/3/1 0:59,4.6,2,4.9,3,5.6,2
2018/3/1 1:00,4.4,2,4.6,3,5.7,1
2018/3/1 1:01,4,2,4.4,3,4.3,4
2018/3/1 1:02,3.8,2,4,3,4.7,2
2018/3/1 1:03,3.6,2,3.8,3,3.2,4
2018/3/1 1:04,3.3,2,3.5,3,4.9,1
2018/3/1 1:05,3.2,2,3.3,3,6.5,1
2018/3/1 1:06,3.1,2,3.3,3,4.3,2
2018/3/1 1:07,3.2,2,3.2,3,6.1,2
2018/3/1 1:08,3.1,2,3.2,2,5.8,2
2018/3/1 1:09,3.2,2,3.2,2,6.8,2
2018/3/1 1:10,3.3,2,3.3,2,6.8,2
2018/3/1 1:11,3.3,2,3.3,2,5.4,3
2018/3/1 1:12,3.5,2,3.5,2,6.9,3
2018/3/1 1:13,3.4,2,3.5,2,4.1,3
2018/3/1 1:14,3.4,2,3.4,2,3.8,3
2018/3/1 1:15,3.2,2,3.3,2,4.4,3
2018/3/1 1:16,3.1,2,3.2,2,4.5,2
2018/3/1 1:17,3,2,3.1,2,6.3,3
2018/3/1 1:18,3,2,3.1,2,6.4,3
2018/3/1 1:19,2.8,2,3,2,3.2,2
2018/3/1 1:20,2.7,2,2.8,2,5.1,2
2018/3/1 1:21,2.5,2,2.7,2,3.1,3
2018/3/1 1:22,2.2,2,2.5,2,2,3
2018/3/1 1:23,2.1,2,2.1,2,2.4,1
2018/3/1 1:24,2.2,2,2.2,2,4.4,2
2018/3/1 1:25,2.3,2,2.3,2,4.8,3
2018/3/1 1:26,2.3,2,2.4,2,3.2,2
2018/3/1 1:27,2.3,2,2.4,2,3.7,3
2018/3/1 1:28,2.3,2,2.3,2,5.4,2
2018/3/1 1:29,2.4,2,2.4,2,4.8,3
2018/3/1 1:30,2.5,2,2.5,2,4.3,3
2018/3/1 1:31,2.5,2,2.5,2,3.2,2
2018/3/1 1:32,2.6,2,2.6,2,3.8,4
2018/3/1 1:33,2.8,3,2.8,3,4.8,4
2018/3/1 1:34,2.8,3,2.8,3,4.7,4
2018/3/1 1:35,2.8,3,2.8,3,4.3,3
2018/3/1 1:36,2.8,3,2.8,3,4.1,3
2018/3/1 1:37,2.7,3,2.8,3,3.6,3
2018/3/1 1:38,2.7,3,2.7,3,3.3,3
2018/3/1 1:39,2.4,3,2.7,3,2.5,5
2018/3/1 1:40,2.3,4,2.4,3,2.9,6
2018/3/1 1:41,2.3,4,2.3,3,2.4,4
2018/3/1 1:42,2.2,4,2.3,3,2.4,4
2018/3/1 1:43,2.1,3,2.2,3,3.3,1
2018/3/1 1:44,1.9,3,2,3,2.4,16
2018/3/1 1:45,1.7,3,1.9,3,2.6,1
2018/3/1 1:46,1.6,3,1.7,3,1.5,1
2018/3/1 1:47,1.5,2,1.6,3,1.4,1
2018/3/1 1:48,1.3,3,1.4,3,1.5,6
2018/3/1 1:49,1.4,3,1.4,3,3.7,6
2018/3/1 1:50,1.7,3,1.7,4,6.2,7
2018/3/1 1:51,1.9,3,1.9,4,6.4,6
2018/3/1 1:52,2,4,2,4,2.9,5
2018/3/1 1:53,2,4,2,3,3.1,6
2018/3/1 1:54,2,4,2,4,2.7,4
2018/3/1 1:55,2.1,5,2.1,5,3.9,5
2018/3/1 1:56,2.2,5,2.2,5,2.9,5
2018/3/1 1:57,2.2,6,2.2,5,2.5,9
2018/3/1 1:58,2.3,6,2.3,6,3.3,12
2018/3/1 1:59,2.3,6,2.4,6,3,12
2018/3/1 2:00,2.2,6,2.3,6,5.4,2
2018/3/1 2:01,2.1,5,2.2,6,6.1,2
2018/3/1 2:02,2.1,4,2.2,6,4.7,3
2018/3/1 2:03,2,3,2.1,6,2.2,3
2018/3/1 2:04,2,2,2,6,2,12
2018/3/1 2:05,1.9,14,2,6,3.3,11
2018/3/1 2:06,2,14,2,6,2.5,13
2018/3/1 2:07,2.1,14,2.1,6,2.7,15
2018/3/1 2:08,2.1,15,2.2,6,3.2,15
2018/3/1 2:09,2.1,16,2.1,6,3.5,1
2018/3/1 2:10,2,15,2.1,6,3.3,16
2018/3/1 2:11,2.1,15,2.1,5,7.8,1
2018/3/1 2:12,2.3,15,2.3,15,7.2,1
2018/3/1 2:13,2.5,15,2.5,15,4.1,1
2018/3/1 2:14,2.6,15,2.6,15,4.1,15
2018/3/1 2:15,2.6,16,2.7,15,3.6,15
2018/3/1 2:16,2.6,16,2.6,15,2.4,14
2018/3/1 2:17,2.6,15,2.6,15,2,12
2018/3/1 2:18,2.6,15,2.6,15,2.5,13
2018/3/1 2:19,2.6,15,2.6,15,2.6,15
2018/3/1 2:20,2.6,15,2.6,15,2.6,1
2018/3/1 2:21,2.2,15,2.6,15,2.5,16
2018/3/1 2:22,1.8,15,2.2,15,1.1,10
2018/3/1 2:23,1.7,15,1.8,15,3.5,10
2018/3/1 2:24,1.8,14,1.8,15,6,10
2018/3/1 2:25,1.8,14,1.8,16,7.2,13
2018/3/1 2:26,2.2,14,2.2,16,9.8,11
2018/3/1 2:27,2.4,13,2.4,15,4.3,8
2018/3/1 2:28,2.5,13,2.5,15,4.8,8
2018/3/1 2:29,2.5,12,2.5,15,4.8,9
2018/3/1 2:30,2.4,10,2.5,15,2,8
2018/3/1 2:31,2.3,9,2.4,13,1.8,6
2018/3/1 2:32,2.4,9,2.4,13,2.4,9
2018/3/1 2:33,2.3,9,2.4,13,1.3,9
2018/3/1 2:34,2,9,2.3,13,0.9,8
2018/3/1 2:35,1.8,9,2,13,1.8,7
2018/3/1 2:36,1.3,8,1.7,13,1.6,8
2018/3/1 2:37,1.1,9,1.3,13,0.8,9
2018/3/1 2:38,0.8,9,1,13,0.6,11
2018/3/1 2:39,0.6,9,0.8,11,1.1,9
2018/3/1 2:40,0.6,9,0.6,10,0.8,8
2018/3/1 2:41,0.6,9,0.6,9,1.4,8
2018/3/1 2:42,0.6,9,0.6,9,0.5,10
2018/3/1 2:43,0.6,10,0.6,10,0.4,12
2018/3/1 2:44,0.5,10,0.6,9,0.8,12
2018/3/1 2:45,0.5,10,0.5,9,1,14
2018/3/1 2:46,0.6,11,0.6,9,1.9,15
2018/3/1 2:47,0.7,11,0.7,9,1.9,15
2018/3/1 2:48,0.7,12,0.7,9,1.1,16
2018/3/1 2:49,0.7,13,0.7,11,1.3,16
2018/3/1 2:50,0.7,13,0.7,11,1.1,3
2018/3/1 2:51,0.6,14,0.7,11,1.3,1
2018/3/1 2:52,0.8,15,0.8,15,1.6,16
2018/3/1 2:53,0.9,16,0.9,16,2,15
2018/3/1 2:54,1,16,1,16,2.4,16
2018/3/1 2:55,1.1,16,1.1,16,2,16
2018/3/1 2:56,1.2,1,1.2,16,2.4,16
2018/3/1 2:57,1.2,1,1.2,16,2.5,1
2018/3/1 2:58,1.3,1,1.3,1,1.8,16
2018/3/1 2:59,1.4,1,1.4,1,2.2,15
2018/3/1 3:00,1.7,16,1.7,16,4.5,16
2018/3/1 3:01,1.8,16,1.8,16,3.7,16
2018/3/1 3:02,1.8,16,1.8,16,2.2,16
2018/3/1 3:03,1.7,16,1.8,16,1.1,13
2018/3/1 3:04,1.6,16,1.7,16,1.6,16
2018/3/1 3:05,1.5,16,1.6,16,1,3
2018/3/1 3:06,1.4,16,1.5,16,1,2
2018/3/1 3:07,1.3,16,1.3,16,2.5,10
2018/3/1 3:08,1.3,15,1.3,16,2.4,9
2018/3/1 3:09,1.2,15,1.3,16,1.5,9
2018/3/1 3:10,1,13,1.2,16,1.8,8
2018/3/1 3:11,0.8,11,0.9,16,0.8,10
2018/3/1 3:12,0.8,10,0.8,16,1.6,10
2018/3/1 3:13,0.8,9,0.8,16,1.5,10
2018/3/1 3:14,0.8,9,0.8,16,2,3
2018/3/1 3:15,1,8,1,16,2.4,3
2018/3/1 3:16,1,9,1,16,1.9,4
2018/3/1 3:17,1,8,1,16,2.6,8
2018/3/1 3:18,1.1,8,1.1,15,2.9,5
2018/3/1 3:19,1.1,7,1.1,15,3,9
2018/3/1 3:20,1.1,7,1.1,8,2.2,10
2018/3/1 3:21,1.2,7,1.2,7,2.2,6
2018/3/1 3:22,1.2,6,1.2,7,1.8,5
2018/3/1 3:23,1.2,5,1.2,7,1.1,4
2018/3/1 3:24,1.1,5,1.2,7,0.8,5
2018/3/1 3:25,0.9,6,1,7,0.4,10
2018/3/1 3:26,0.9,7,0.9,7,0.3,7
2018/3/1 3:27,0.8,7,0.9,7,1,11
2018/3/1 3:28,0.7,8,0.7,7,1.8,10
2018/3/1 3:29,0.7,7,0.7,7,1.6,7
2018/3/1 3:30,0.7,8,0.7,7,2.1,8
2018/3/1 3:31,0.7,8,0.7,7,2.1,9
2018/3/1 3:32,0.5,9,0.6,6,0.4,9
2018/3/1 3:33,0.5,9,0.5,5,1.5,13
2018/3/1 3:34,0.6,9,0.6,5,1.4,12
2018/3/1 3:35,0.7,9,0.7,6,1.3,7
2018/3/1 3:36,0.8,9,0.8,7,3.6,8
2018/3/1 3:37,1,9,1,9,5,8
2018/3/1 3:38,1.1,9,1.1,9,3.1,11
2018/3/1 3:39,1.2,10,1.2,9,3.1,9
2018/3/1 3:40,1.1,10,1.2,9,1.8,11
2018/3/1 3:41,1.1,11,1.1,9,1.6,11
2018/3/1 3:42,1.2,10,1.2,9,1.1,13
2018/3/1 3:43,1.3,11,1.3,11,1.5,10
2018/3/1 3:44,1.3,11,1.3,11,1.3,13
2018/3/1 3:45,1.3,11,1.3,11,1.4,12
2018/3/1 3:46,1.3,11,1.3,11,2.5,9
2018/3/1 3:47,1.2,12,1.3,11,1.9,12
2018/3/1 3:48,1.1,12,1.1,11,3.1,9
2018/3/1 3:49,1,12,1.1,11,2.5,10
2018/3/1 3:50,1.2,11,1.2,11,4.1,10
2018/3/1 3:51,1.3,11,1.3,11,4.7,11
2018/3/1 3:52,1.4,11,1.4,11,2.6,8
2018/3/1 3:53,1.5,11,1.5,11,4.9,9
2018/3/1 3:54,1.7,10,1.7,10,4.8,11
2018/3/1 3:55,2,10,2,10,6.2,8
2018/3/1 3:56,2,10,2,10,5.2,9
2018/3/1 3:57,2.2,10,2.2,10,5.4,9
2018/3/1 3:58,2.2,10,2.3,10,2.6,10
2018/3/1 3:59,2.3,10,2.3,10,3,11
2018/3/1 4:00,2.2,10,2.2,10,4.8,9
2018/3/1 4:01,2.2,10,2.2,10,4.3,10
2018/3/1 4:02,2.4,10,2.4,10,8.3,9
2018/3/1 4:03,2.4,10,2.4,10,5.4,10
2018/3/1 4:04,2.4,10,2.4,10,6.3,10
2018/3/1 4:05,2.5,10,2.5,10,6,8
2018/3/1 4:06,2.4,10,2.5,10,4.2,10
2018/3/1 4:07,2.8,10,2.8,10,10.6,10
2018/3/1 4:08,3.1,10,3.1,10,7.6,10
2018/3/1 4:09,3.2,10,3.2,10,5.1,9
2018/3/1 4:10,3.1,10,3.3,10,3.2,9
2018/3/1 4:11,3.2,10,3.2,10,4.5,11
2018/3/1 4:12,3.2,10,3.3,10,6.4,9
2018/3/1 4:13,3.3,10,3.3,10,5.6,9
2018/3/1 4:14,3.3,10,3.3,10,5.4,9
2018/3/1 4:15,3,10,3.2,10,5.1,10
2018/3/1 4:16,3.1,10,3.1,10,5.7,12
2018/3/1 4:17,2.8,10,3.2,10,6.4,12
2018/3/1 4:18,2.7,10,2.8,10,5.2,10
2018/3/1 4:19,2.8,10,2.8,10,6.8,11
2018/3/1 4:20,2.9,10,2.9,10,7,8
2018/3/1 4:21,3,10,3,10,7.4,10
2018/3/1 4:22,3.1,10,3.2,10,9.7,11
2018/3/1 4:23,3,10,3.1,10,4.9,8
2018/3/1 4:24,3.3,10,3.3,10,9.2,11
2018/3/1 4:25,3.5,10,3.5,10,8.2,10
2018/3/1 4:26,4.1,10,4.1,10,13.8,10
2018/3/1 4:27,4.3,10,4.3,10,14.1,9
2018/3/1 4:28,4.4,10,4.4,10,10.5,10
2018/3/1 4:29,4.6,10,4.6,10,9.9,9
2018/3/1 4:30,4.9,10,4.9,10,7.6,11
2018/3/1 4:31,5,10,5,10,9.2,9
2018/3/1 4:32,5,10,5.1,10,9.9,10
2018/3/1 4:33,5.3,10,5.3,10,10,10
2018/3/1 4:34,5.2,10,5.3,10,7.7,10
2018/3/1 4:35,5.3,10,5.3,10,9.1,10
2018/3/1 4:36,5,10,5.4,10,7.6,11
2018/3/1 4:37,4.9,10,5,10,7.6,11
2018/3/1 4:38,4.8,10,5,10,6.5,11
2018/3/1 4:39,4.7,10,4.8,10,7.4,10
2018/3/1 4:40,4.7,10,4.8,10,7.8,9
2018/3/1 4:41,4.6,10,4.7,10,8.5,10
2018/3/1 4:42,4.5,10,4.6,10,9.1,9
2018/3/1 4:43,4.4,10,4.6,10,8.3,9
2018/3/1 4:44,4.5,10,4.5,10,9.2,10
2018/3/1 4:45,4.3,10,4.5,10,6.5,10
2018/3/1 4:46,4.2,10,4.3,10,6.4,9
2018/3/1 4:47,4.1,10,4.2,10,6.3,11
2018/3/1 4:48,4.2,10,4.2,10,6.9,10
2018/3/1 4:49,3.9,10,4.1,10,4.2,10
2018/3/1 4:50,3.7,10,3.9,10,7.2,10
2018/3/1 4:51,3.9,10,3.9,10,8.6,10
2018/3/1 4:52,3.9,10,3.9,10,8.1,10
2018/3/1 4:53,3.9,10,3.9,10,5.8,11
2018/3/1 4:54,3.7,10,3.9,10,4.5,12
2018/3/1 4:55,3.8,10,3.8,10,7.9,12
2018/3/1 4:56,3.7,10,3.8,10,7.5,9
2018/3/1 4:57,3.8,11,3.8,10,6.2,12
2018/3/1 4:58,3.8,10,3.8,10,7.1,9
2018/3/1 4:59,4,10,4,10,5.8,11
2018/3/1 5:00,4,10,4.1,10,6.1,10
2018/3/1 5:01,3.8,10,4,10,5.7,10
2018/3/1 5:02,3.7,10,3.8,10,4.5,11
2018/3/1 5:03,3.7,10,3.7,10,6,10
2018/3/1 5:04,3.6,10,3.7,10,5.8,10
2018/3/1 5:05,3.6,10,3.6,10,4.1,12
2018/3/1 5:06,3.4,10,3.5,10,5.4,10
2018/3/1 5:07,3.4,11,3.5,10,5.4,11
2018/3/1 5:08,3.2,11,3.4,10,4.9,12
2018/3/1 5:09,3.2,11,3.2,10,6.1,10
2018/3/1 5:10,3.2,11,3.2,10,7.4,11
2018/3/1 5:11,3.4,11,3.4,10,8.7,10
2018/3/1 5:12,3.5,11,3.5,10,7,9
2018/3/1 5:13,3.5,11,3.6,10,5.6,11
2018/3/1 5:14,3.5,11,3.6,10,4.9,9
2018/3/1 5:15,3.5,11,3.6,11,4.9,10
2018/3/1 5:16,3.5,11,3.6,11,4.1,9
2018/3/1 5:17,3.4,10,3.5,11,3.5,9
2018/3/1 5:18,3.4,10,3.5,11,5.8,9
2018/3/1 5:19,3.4,10,3.4,11,7.1,10
2018/3/1 5:20,3.4,10,3.5,11,5.2,10
2018/3/1 5:21,3.1,10,3.4,11,6,10
2018/3/1 5:22,2.9,10,3.1,11,5.1,11
2018/3/1 5:23,2.7,11,2.9,11,2.6,9
2018/3/1 5:24,2.5,10,2.7,11,1.9,9
2018/3/1 5:25,2.4,10,2.5,11,2.5,13
2018/3/1 5:26,2.3,10,2.4,11,3.5,8
2018/3/1 5:27,2.5,11,2.5,10,6.3,11
2018/3/1 5:28,2.5,10,2.6,10,5.2,9
2018/3/1 5:29,2.5,10,2.5,10,4.4,11
2018/3/1 5:30,2.4,10,2.5,10,6.1,11
2018/3/1 5:31,2.5,10,2.5,10,4.9,11
2018/3/1 5:32,2.5,10,2.5,10,5,11
2018/3/1 5:33,2.6,10,2.6,11,4.2,12
2018/3/1 5:34,2.7,11,2.7,11,5.1,12
2018/3/1 5:35,2.9,11,2.9,11,4.1,9
2018/3/1 5:36,3,11,3,11,6.3,11
2018/3/1 5:37,3.1,11,3.1,11,8.2,10
2018/3/1 5:38,3.2,11,3.2,11,9.1,10
2018/3/1 5:39,3.3,11,3.3,11,7.4,10
2018/3/1 5:40,3.3,11,3.3,11,6.4,13
2018/3/1 5:41,3.3,11,3.3,11,6.3,11
2018/3/1 5:42,3.3,11,3.3,11,7.6,9
2018/3/1 5:43,3.3,11,3.3,11,4.1,8
2018/3/1 5:44,3.3,11,3.3,11,4.4,9
2018/3/1 5:45,3.2,10,3.3,11,4.1,10
2018/3/1 5:46,3.1,11,3.2,11,3.7,11
2018/3/1 5:47,2.7,11,3,11,1.6,13
2018/3/1 5:48,2.4,11,2.6,11,2.4,10
2018/3/1 5:49,2.1,11,2.3,11,2.7,12
2018/3/1 5:50,1.9,11,2.1,11,3,14
2018/3/1 5:51,1.6,11,1.9,11,0.3,11
2018/3/1 5:52,1.3,11,1.5,11,1.1,1
2018/3/1 5:53,1.2,11,1.3,11,2.6,7
2018/3/1 5:54,1.1,11,1.3,11,1.9,10
2018/3/1 5:55,1.2,12,1.2,10,3.5,13
2018/3/1 5:56,1.2,12,1.2,11,4.1,12
2018/3/1 5:57,1.2,12,1.2,11,1.6,10
2018/3/1 5:58,1.2,12,1.2,11,3.6,12
2018/3/1 5:59,1.2,12,1.3,11,3.1,13
2018/3/1 6:00,1.2,12,1.2,11,0.9,9
2018/3/1 6:01,1.2,12,1.2,11,1,11
2018/3/1 6:02,1.2,12,1.2,11,1.5,8
2018/3/1 6:03,1.3,12,1.3,11,3.8,12
2018/3/1 6:04,1.4,12,1.4,12,2.9,13
2018/3/1 6:05,1.2,12,1.3,12,2,12
2018/3/1 6:06,1.2,12,1.2,12,2,12
2018/3/1 6:07,1.2,12,1.2,12,2.1,13
2018/3/1 6:08,1.1,12,1.2,12,2,14
2018/3/1 6:09,1.1,12,1.1,12,2.7,12
2018/3/1 6:10,1.2,12,1.2,12,4.2,14
2018/3/1 6:11,1.3,12,1.3,12,1.6,12
2018/3/1 6:12,1.3,12,1.3,12,2.1,10
2018/3/1 6:13,1.2,12,1.4,12,2.2,10
2018/3/1 6:14,1.1,12,1.2,12,1.8,9
2018/3/1 6:15,1.2,12,1.2,12,3.8,11
2018/3/1 6:16,1.2,12,1.2,12,4.2,10
2018/3/1 6:17,1.3,12,1.3,12,3.6,10
2018/3/1 6:18,1.5,11,1.5,11,5.1,10
2018/3/1 6:19,1.7,11,1.7,11,5.4,12
2018/3/1 6:20,1.7,11,1.7,11,4.8,10
2018/3/1 6:21,1.9,11,1.9,11,4.5,11
2018/3/1 6:22,1.9,11,1.9,11,2,13
2018/3/1 6:23,1.9,11,1.9,11,1.9,14
2018/3/1 6:24,2,12,2,12,2.4,13
2018/3/1 6:25,1.9,11,2,12,1.1,8
2018/3/1 6:26,1.8,11,1.9,12,1.9,12
2018/3/1 6:27,1.7,12,1.8,12,1.8,10
2018/3/1 6:28,1.4,12,1.7,12,1,12
2018/3/1 6:29,1.1,12,1.4,12,0.3,6
2018/3/1 6:30,0.9,12,1.1,12,0.6,9
2018/3/1 6:31,0.9,12,0.9,12,3.1,11
2018/3/1 6:32,0.9,11,1,12,3.7,11
2018/3/1 6:33,0.9,11,0.9,12,2.4,12
2018/3/1 6:34,1,11,1,12,2.7,10
2018/3/1 6:35,1.1,11,1.1,11,2.7,9
2018/3/1 6:36,1.2,11,1.2,12,3.6,11
2018/3/1 6:37,1.2,11,1.2,12,3.9,11
2018/3/1 6:38,1.3,11,1.3,12,2,10
2018/3/1 6:39,1.5,11,1.5,11,4.4,10
2018/3/1 6:40,1.7,11,1.7,11,3.7,11
2018/3/1 6:41,1.9,11,1.9,11,5.5,12
2018/3/1 6:42,2,11,2,11,5.2,10
2018/3/1 6:43,2,11,2,11,2.5,10
2018/3/1 6:44,2.1,11,2.1,11,4.7,10
2018/3/1 6:45,2.2,11,2.2,11,4.7,10
2018/3/1 6:46,2.2,11,2.3,11,4.7,10
2018/3/1 6:47,2.3,11,2.3,11,3.7,9
2018/3/1 6:48,2.3,11,2.3,11,4.3,11
2018/3/1 6:49,2.3,11,2.3,11,3.6,11
2018/3/1 6:50,2.2,11,2.3,11,3.1,11
2018/3/1 6:51,2.2,11,2.2,11,4.7,12
2018/3/1 6:52,2,11,2.1,11,2.9,11
2018/3/1 6:53,2.1,11,2.1,11,4.5,9
2018/3/1 6:54,2.2,11,2.2,11,8.1,12
2018/3/1 6:55,2.3,11,2.3,11,6.1,10
2018/3/1 6:56,2.4,11,2.4,11,6.8,14
2018/3/1 6:57,2.5,11,2.5,11,6,10
2018/3/1 6:58,2.5,11,2.5,11,4.9,9
2018/3/1 6:59,2.7,11,2.7,11,6.5,10
2018/3/1 7:00,2.9,11,2.9,11,6.3,8
2018/3/1 7:01,3,11,3,11,10,12
2018/3/1 7:02,3.5,11,3.5,11,10.2,13
2018/3/1 7:03,3.7,11,3.7,11,12.5,12
2018/3/1 7:04,4,11,4,11,9.4,14
2018/3/1 7:05,4.1,11,4.1,11,10.6,1
2018/3/1 7:06,4.2,11,4.2,11,6.7,10
2018/3/1 7:07,4.3,12,4.3,12,12.1,11
2018/3/1 7:08,4.5,12,4.5,12,7.5,8
2018/3/1 7:09,5,12,5,12,15.6,12
2018/3/1 7:10,5.2,12,5.2,12,11,10
2018/3/1 7:11,5.4,12,5.4,12,10.9,13
2018/3/1 7:12,5.6,12,5.6,12,13.2,12
2018/3/1 7:13,5.6,12,5.7,12,10,13
2018/3/1 7:14,5.4,12,5.6,12,8.3,13
2018/3/1 7:15,5.5,12,5.6,12,7.2,10
2018/3/1 7:16,5.9,12,5.9,12,14,12
2018/3/1 7:17,5.8,12,5.9,12,9.4,13
2018/3/1 7:18,6.2,12,6.2,12,13.9,13
2018/3/1 7:19,5.7,12,6.3,12,10.5,9
2018/3/1 7:20,5.8,12,5.9,12,14.9,12
2018/3/1 7:21,5.9,12,5.9,12,10.8,12
2018/3/1 7:22,5.7,12,5.9,12,9.1,12
2018/3/1 7:23,5.5,12,5.7,12,5.8,11
2018/3/1 7:24,5.3,12,5.4,12,6.1,10
2018/3/1 7:25,5.2,12,5.3,12,9.2,14
2018/3/1 7:26,5.2,12,5.3,12,13.5,11
2018/3/1 7:27,5.8,12,5.8,12,19.6,13
2018/3/1 7:28,5.6,12,6,12,17.8,1
2018/3/1 7:29,5.7,12,5.7,12,11.7,10
2018/3/1 7:30,5.7,12,5.9,12,11.9,14
2018/3/1 7:31,5.5,12,5.7,12,8.7,14
2018/3/1 7:32,5.5,12,5.6,12,12.5,11
2018/3/1 7:33,5.8,12,5.8,12,11,11
2018/3/1 7:34,6.1,12,6.1,12,10,12
2018/3/1 7:35,6.3,13,6.3,12,10.3,15
2018/3/1 7:36,6,13,6.2,12,9.2,12
2018/3/1 7:37,5.3,13,6,12,9.7,14
2018/3/1 7:38,5.3,13,5.3,12,8.1,11
2018/3/1 7:39,5.5,13,5.5,12,11.6,13
2018/3/1 7:40,5.2,13,5.4,12,9.7,1
2018/3/1 7:41,5.2,13,5.2,12,11.3,10
2018/3/1 7:42,5,13,5.2,12,6.1,11
2018/3/1 7:43,4.7,13,5,12,6.5,15
2018/3/1 7:44,4.7,13,4.7,12,11.3,11
2018/3/1 7:45,4.8,13,4.8,13,14.9,12
2018/3/1 7:46,5.1,12,5.1,13,19.2,12
2018/3/1 7:47,5,12,5.1,13,5.6,12
2018/3/1 7:48,4.9,12,5,13,9.1,12
2018/3/1 7:49,4.7,12,4.9,13,10.5,11
2018/3/1 7:50,5.1,12,5.1,13,16.7,9
2018/3/1 7:51,5.1,12,5.1,13,11.8,15
2018/3/1 7:52,5.4,12,5.4,12,13.2,9
2018/3/1 7:53,5.8,12,5.8,12,11,12
2018/3/1 7:54,5.8,12,5.9,12,12.5,13
2018/3/1 7:55,6,12,6,12,15,11
2018/3/1 7:56,6,12,6,12,14.2,11
2018/3/1 7:57,6.4,11,6.4,11,16.1,13
2018/3/1 7:58,6.6,11,6.6,11,14.4,10
2018/3/1 7:59,6.7,11,6.9,11,13.2,11
2018/3/1 8:00,6.6,12,6.8,11,11.5,12
2018/3/1 8:01,7.1,12,7.1,12,14.3,12
2018/3/1 8:02,7,12,7.1,12,9.2,14
2018/3/1 8:03,6.7,12,6.9,12,10,12
2018/3/1 8:04,6.8,12,6.8,12,16.8,13
2018/3/1 8:05,6.7,12,6.9,12,12.7,13
2018/3/1 8:06,6.2,12,6.7,12,6.7,13
2018/3/1 8:07,6.3,12,6.3,12,14.4,12
2018/3/1 8:08,6.2,13,6.3,12,9.7,13
2018/3/1 8:09,6.4,13,6.4,12,7.7,12
2018/3/1 8:10,6.2,12,6.4,12,8.2,15
2018/3/1 8:11,5.8,12,6.2,12,10.1,12
2018/3/1 8:12,5.7,12,5.8,12,10.1,13
2018/3/1 8:13,6.1,12,6.2,12,14.9,12
2018/3/1 8:14,5.8,12,6,12,8.3,13
2018/3/1 8:15,6,12,6,12,14.2,12
2018/3/1 8:16,6.2,12,6.2,13,12.3,14
2018/3/1 8:17,6,12,6.3,13,8.2,10
2018/3/1 8:18,6,12,6,13,9.7,13
2018/3/1 8:19,6,12,6,13,9.9,12
2018/3/1 8:20,6.1,12,6.1,12,11.3,11
2018/3/1 8:21,6.4,12,6.4,12,13.1,14
2018/3/1 8:22,6.5,12,6.6,12,12.2,12
2018/3/1 8:23,6.2,12,6.5,12,8.6,9
2018/3/1 8:24,6.6,12,6.6,12,14.8,12
2018/3/1 8:25,6.4,12,6.6,12,12.2,12
2018/3/1 8:26,6.3,12,6.3,12,10.7,11
2018/3/1 8:27,6.5,12,6.5,12,12.7,13
2018/3/1 8:28,6.6,12,6.6,12,13.4,10
2018/3/1 8:29,6.8,12,6.8,12,13.4,12
2018/3/1 8:30,6.8,12,6.9,12,13.3,10
2018/3/1 8:31,6.5,12,6.8,12,8.4,12
2018/3/1 8:32,6.5,12,6.5,12,9.8,10
2018/3/1 8:33,6.5,12,6.5,12,10.2,10
2018/3/1 8:34,6.4,12,6.6,12,11,12
2018/3/1 8:35,6.4,12,6.4,12,11,12
2018/3/1 8:36,6.1,12,6.4,12,4.5,13
2018/3/1 8:37,5.7,12,6.1,12,9.8,12
2018/3/1 8:38,5.5,12,5.8,12,8.9,12
2018/3/1 8:39,5.1,12,5.5,12,9.3,13
2018/3/1 8:40,4.8,12,5.1,12,5.6,13
2018/3/1 8:41,4.7,12,4.7,12,10.1,10
2018/3/1 8:42,4.6,12,4.8,12,10.5,9
2018/3/1 8:43,4.6,12,4.6,12,10.5,13
2018/3/1 8:44,4.3,12,4.6,12,7.8,12
2018/3/1 8:45,4.5,12,4.5,12,17,13
2018/3/1 8:46,5,12,5,12,13.6,12
2018/3/1 8:47,5.4,12,5.4,12,11.7,13
2018/3/1 8:48,5.4,12,5.4,12,8.1,10
2018/3/1 8:49,5.4,12,5.4,12,9.4,11
2018/3/1 8:50,5.6,12,5.6,12,8.4,10
2018/3/1 8:51,5.6,12,5.7,11,8.3,9
2018/3/1 8:52,5.4,12,5.5,11,5.7,9
2018/3/1 8:53,5.5,12,5.5,11,13.1,11
2018/3/1 8:54,5.7,11,5.7,11,12.3,11
2018/3/1 8:55,5.5,12,5.6,11,9.8,12
2018/3/1 8:56,5.4,12,5.4,11,9.8,13
2018/3/1 8:57,5.4,11,5.4,11,11.5,10
2018/3/1 8:58,5.5,11,5.5,11,11,10
2018/3/1 8:59,5.4,11,5.5,11,11,10
2018/3/1 9:00,5.4,11,5.5,11,12.1,9
2018/3/1 9:01,5.6,11,5.6,11,10.6,8
2018/3/1 9:02,5.9,12,5.9,12,12.7,12
2018/3/1 9:03,5.6,11,5.9,12,11,10
2018/3/1 9:04,5.8,12,5.8,12,13.9,13
2018/3/1 9:05,5.9,12,5.9,12,10.8,12
2018/3/1 9:06,5.9,11,6,12,15.2,10
2018/3/1 9:07,6,12,6,12,11.4,10
2018/3/1 9:08,5.9,12,6,12,12.7,10
2018/3/1 9:09,6,11,6,12,10.2,8
2018/3/1 9:10,6.2,11,6.2,11,12.6,12
2018/3/1 9:11,6.2,12,6.2,11,8.9,12
2018/3/1 9:12,6.1,12,6.2,11,9.2,12
2018/3/1 9:13,6.4,12,6.4,12,13.6,10
2018/3/1 9:14,6.4,11,6.4,12,15.4,12
2018/3/1 9:15,6.4,11,6.4,12,13.4,13
2018/3/1 9:16,6.3,12,6.4,12,11,13
2018/3/1 9:17,6.2,12,6.3,12,12.6,12
2018/3/1 9:18,6.3,12,6.3,12,10,13
2018/3/1 9:19,6.5,12,6.5,12,13.5,13
2018/3/1 9:20,6.7,12,6.7,12,12.2,12
2018/3/1 9:21,6.5,12,6.7,12,8.9,15
2018/3/1 9:22,6.5,12,6.5,12,12.5,10
2018/3/1 9:23,6.3,12,6.6,12,12.3,14
2018/3/1 9:24,6.2,13,6.3,12,12.1,12
2018/3/1 9:25,6.1,12,6.3,12,12.1,10
2018/3/1 9:26,5.9,12,6.1,12,9.4,9
2018/3/1 9:27,5.9,12,6,12,14.3,10
2018/3/1 9:28,6,12,6,12,12.7,12
2018/3/1 9:29,6.1,12,6.2,12,13.5,12
2018/3/1 9:30,5.7,12,6.1,12,9.9,13
2018/3/1 9:31,6,12,6,12,10.7,13
2018/3/1 9:32,6.2,12,6.3,12,14.4,11
2018/3/1 9:33,6.2,12,6.2,12,15.1,13
2018/3/1 9:34,6.1,12,6.2,13,12.8,10
2018/3/1 9:35,6.1,12,6.2,12,10.7,12
2018/3/1 9:36,6.3,12,6.3,12,10.5,13
2018/3/1 9:37,6.2,12,6.3,12,12.7,11
2018/3/1 9:38,6.3,12,6.4,12,11.3,13
2018/3/1 9:39,5.9,12,6.3,12,9.5,12
2018/3/1 9:40,6.1,12,6.1,12,15,12
2018/3/1 9:41,5.8,12,6,12,9.3,13
2018/3/1 9:42,5.6,12,5.7,12,11.7,12
2018/3/1 9:43,5.6,12,5.7,12,16.2,11
2018/3/1 9:44,5.9,13,5.9,12,22,12
2018/3/1 9:45,6.1,13,6.2,12,14,13
2018/3/1 9:46,6.1,13,6.1,12,11.1,11
2018/3/1 9:47,6.3,13,6.3,12,17,13
2018/3/1 9:48,6,13,6.3,12,16.7,12
2018/3/1 9:49,6.1,13,6.1,13,9.2,13
2018/3/1 9:50,6.2,13,6.3,13,11,14
2018/3/1 9:51,6.5,13,6.5,13,13.2,13
2018/3/1 9:52,6.2,13,6.5,13,6.2,15
2018/3/1 9:53,6.1,13,6.3,13,10.9,12
2018/3/1 9:54,5.7,13,6.1,13,10.6,11
2018/3/1 9:55,5.4,13,5.6,13,9.9,13
2018/3/1 9:56,5.4,13,5.4,13,9.9,12
2018/3/1 9:57,5.3,13,5.4,13,13,12
2018/3/1 9:58,5.6,13,5.6,13,11.5,12
2018/3/1 9:59,5.6,13,5.7,13,11,12
2018/3/1 10:00,5.5,13,5.6,13,10.1,14
2018/3/1 10:01,5.3,13,5.6,13,9.1,14
2018/3/1 10:02,5.6,13,5.6,13,10.3,12
2018/3/1 10:03,5.5,13,5.7,13,7.5,12
2018/3/1 10:04,5.6,13,5.6,13,10.3,13
2018/3/1 10:05,5.5,13,5.7,13,10.1,13
2018/3/1 10:06,5.3,13,5.5,13,6.3,2
2018/3/1 10:07,4.8,13,5.3,13,5,10
2018/3/1 10:08,4.4,13,4.7,13,4.8,12
2018/3/1 10:09,3.9,13,4.3,13,5.8,12
2018/3/1 10:10,3.7,13,4,13,6.5,13
2018/3/1 10:11,3.4,13,3.6,13,2.5,13
2018/3/1 10:12,3.1,13,3.4,13,5.4,9
2018/3/1 10:13,2.9,13,3.1,13,6.2,14
2018/3/1 10:14,2.7,12,2.9,13,7.1,13
2018/3/1 10:15,2.6,12,2.7,13,7.9,9
2018/3/1 10:16,2.5,12,2.6,13,4.3,8
2018/3/1 10:17,2.8,12,2.8,13,6.7,11
2018/3/1 10:18,2.9,12,2.9,13,7.4,12
2018/3/1 10:19,2.9,12,3,13,6.2,13
2018/3/1 10:20,2.9,12,2.9,13,5.8,11
2018/3/1 10:21,3.1,12,3.1,13,8.2,11
2018/3/1 10:22,3.3,12,3.3,12,7.9,14
2018/3/1 10:23,3.4,12,3.4,12,7.7,7
2018/3/1 10:24,3.8,12,3.8,12,13.5,11
2018/3/1 10:25,4.1,12,4.1,12,10.5,11
2018/3/1 10:26,4.4,12,4.4,12,7.8,13
2018/3/1 10:27,4.5,12,4.5,12,8.9,12
2018/3/1 10:28,4.4,12,4.6,12,8.3,11
2018/3/1 10:29,4.6,12,4.6,12,7.1,11
2018/3/1 10:30,4.7,12,4.7,12,7.6,13
2018/3/1 10:31,4.8,12,4.8,12,8.2,10
2018/3/1 10:32,4.6,12,4.8,12,5.8,11
2018/3/1 10:33,4.6,11,4.7,12,6.3,10
2018/3/1 10:34,4.2,11,4.6,12,7.9,10
2018/3/1 10:35,4.2,11,4.2,12,10.8,12
2018/3/1 10:36,4.5,11,4.5,12,14,10
2018/3/1 10:37,4.5,11,4.5,12,11.7,10
2018/3/1 10:38,4.8,11,4.8,12,13.6,10
2018/3/1 10:39,4.9,11,4.9,11,10.8,9
2018/3/1 10:40,4.8,10,4.9,11,7.8,12
2018/3/1 10:41,4.6,11,4.8,11,6.3,9
2018/3/1 10:42,4.8,11,4.8,11,8.7,13
2018/3/1 10:43,4.7,11,4.8,11,4.3,8
2018/3/1 10:44,4.7,11,4.8,11,6.4,12
2018/3/1 10:45,4.5,11,4.7,11,6.7,10
2018/3/1 10:46,4.2,11,4.5,11,8.7,11
2018/3/1 10:47,4.1,11,4.3,11,8.7,10
2018/3/1 10:48,4,11,4.1,11,9.2,12
2018/3/1 10:49,3.8,11,3.9,11,6.1,11
2018/3/1 10:50,3.9,11,3.9,10,9.1,13
2018/3/1 10:51,4.1,11,4.1,11,11.6,10
2018/3/1 10:52,4,11,4.1,11,8.2,13
2018/3/1 10:53,4.1,11,4.1,11,6.5,13
2018/3/1 10:54,4.2,11,4.2,11,9.5,9
2018/3/1 10:55,4.3,12,4.4,11,9.2,13
2018/3/1 10:56,4.4,12,4.4,12,10.9,13
2018/3/1 10:57,4.8,12,4.8,12,13,12
2018/3/1 10:58,4.7,12,4.8,12,8.7,13
2018/3/1 10:59,4.7,12,4.8,12,5.7,12
2018/3/1 11:00,4.6,12,4.7,12,8.4,15
2018/3/1 11:01,4.5,12,4.6,12,10.6,12
2018/3/1 11:02,4.5,12,4.7,12,5.8,10
2018/3/1 11:03,4.6,12,4.6,12,7.6,12
2018/3/1 11:04,4.4,12,4.6,12,6.7,13
2018/3/1 11:05,4.2,12,4.4,12,4.4,11
2018/3/1 11:06,4,13,4.2,12,7.4,12
2018/3/1 11:07,3.6,13,4,12,6.1,13
2018/3/1 11:08,3.5,12,3.5,12,8.7,10
2018/3/1 11:09,3.4,12,3.5,12,5.4,10
2018/3/1 11:10,3.4,12,3.4,12,6.5,12
2018/3/1 11:11,3.3,12,3.3,12,6.1,13
2018/3/1 11:12,3.4,12,3.4,12,7.8,12
2018/3/1 11:13,3.5,12,3.5,12,8.7,12
2018/3/1 11:14,3.7,12,3.7,12,9.1,12
2018/3/1 11:15,4,12,4,13,8.2,13
2018/3/1 11:16,4.2,12,4.2,12,7,11
2018/3/1 11:17,4.1,12,4.2,12,5.8,12
2018/3/1 11:18,4,12,4.2,12,5.4,13
2018/3/1 11:19,4.2,12,4.2,12,6.5,13
2018/3/1 11:20,4.3,12,4.3,12,6.9,13
2018/3/1 11:21,4.3,12,4.3,12,6.3,12
2018/3/1 11:22,4.2,12,4.3,12,6,11